Main page
METAR-TAF:

METAR-TAF

Airports :

Oil platform

Euro, Netherlands

latitude: 51-59-52N, longitude: 3-16-30E, elevation: 18 m

Current weather observation

The report was made 30 minutes ago, at 23:55 UTC
Wind 29 kt from the South/Southeast
Temperature 8°C
Humidity 76%
Pressure 1005 hPa
Visibility 10 km or more

METAR: EHSA 182355Z AUTO 16029KT 9999 ///////// 08/04 Q1005 W07/H16

Time: 01:25 (00:25 UTC)


TAF: missing

Weather observations and forecasts of more than 4000 airports (METAR and TAF reports).

The available stations are represented by yellow and red dots on the map.

Hover mouse over dot to see the name of the station.

Then click to see weather observations and forecasts.

To change the map : click on the green buttons with a black cross to zoom in, on the green button with a dash to zoom out, or on the green arrows for adjacent maps.


METAR-TAF: